• In France
  • List of Countries
  • For 7 days
  • Water Temperature
  • Satellite Maps
  • Weather Map
  • Weather Widgets
  • user-avatar
    Login

    Hourly Weather Kandauraul

    Today, 21 August, Tuesday

    Time Temperature Precipitation Wind Pressure Humidity
    00:00 +21°C° 0 mm 4 mps 759 mmHg 62%
    01:00 +21°C° 0 mm 4 mps 758 mmHg 62%
    02:00 +21°C° 0 mm 4 mps 758 mmHg 63%
    03:00 +20°C° 0 mm 4 mps 758 mmHg 66%
    04:00 +21°C° 0 mm 4 mps 758 mmHg 65%
    05:00 +21°C° 0 mm 4 mps 758 mmHg 65%
    06:00 +21°C° 0 mm 4 mps 758 mmHg 65%
    07:00 +23°C° 0 mm 5 mps 758 mmHg 58%
    08:00 +27°C° 0 mm 5 mps 758 mmHg 51%
    09:00 +29°C° 0 mm 5 mps 758 mmHg 44%
    10:00 +30°C° 0 mm 6 mps 758 mmHg 42%
    11:00 +32°C° 0 mm 6 mps 758 mmHg 40%
    12:00 +33°C° 0 mm 7 mps 757 mmHg 37%
    13:00 +33°C° 0 mm 7 mps 757 mmHg 38%
    14:00 +32°C° 0 mm 7 mps 757 mmHg 39%
    15:00 +32°C° 0 mm 8 mps 757 mmHg 42%
    16:00 +30°C° 0 mm 7 mps 757 mmHg 47%
    17:00 +29°C° 0 mm 6 mps 757 mmHg 51%
    18:00 +28°C° 0 mm 6 mps 757 mmHg 55%
    19:00 +26°C° 0 mm 5 mps 757 mmHg 60%
    20:00 +25°C° 0 mm 5 mps 757 mmHg 65%
    21:00 +23°C° 0 mm 4 mps 757 mmHg 70%
    22:00 +23°C° 0 mm 4 mps 757 mmHg 72%
    23:00 +23°C° 0 mm 4 mps 756 mmHg 73%

    Tomorrow, 22 August, Wednesday

    Time Temperature Precipitation Wind Pressure Humidity
    00:00 +22°C° 0 mm 3 mps 756 mmHg 74%
    01:00 +22°C° 0 mm 3 mps 756 mmHg 74%
    02:00 +23°C° 0 mm 2 mps 756 mmHg 74%
    03:00 +23°C° 0 mm 2 mps 756 mmHg 74%
    04:00 +23°C° 0 mm 2 mps 756 mmHg 72%
    05:00 +23°C° 0 mm 2 mps 756 mmHg 70%
    06:00 +23°C° 0 mm 2 mps 756 mmHg 68%
    07:00 +25°C° 0 mm 2 mps 756 mmHg 61%
    08:00 +28°C° 0 mm 2 mps 756 mmHg 54%
    09:00 +30°C° 0 mm 2 mps 756 mmHg 47%
    10:00 +31°C° 0 mm 2 mps 756 mmHg 43%
    11:00 +34°C° 0 mm 2 mps 756 mmHg 40%
    12:00 +35°C° 0 mm 2 mps 756 mmHg 36%
    13:00 +35°C° 0.2 mm 3 mps 755 mmHg 35%
    14:00 +35°C° 0.2 mm 3 mps 755 mmHg 35%
    15:00 +36°C° 0.2 mm 3 mps 755 mmHg 35%
    16:00 +35°C° 0.1 mm 3 mps 755 mmHg 37%
    17:00 +34°C° 0.1 mm 3 mps 755 mmHg 39%
    18:00 +33°C° 0.1 mm 3 mps 755 mmHg 42%
    19:00 +30°C° 0 mm 2 mps 756 mmHg 46%
    20:00 +28°C° 0 mm 2 mps 756 mmHg 50%
    21:00 +27°C° 0 mm 2 mps 756 mmHg 54%
    22:00 +26°C° 0 mm 2 mps 756 mmHg 54%
    23:00 +26°C° 0 mm 2 mps 756 mmHg 55%

    Day after tomorrow, 23 August, Thursday

    Time Temperature Precipitation Wind Pressure Humidity
    00:00 +25°C° 0 mm 2 mps 756 mmHg 55%
    01:00 +25°C° 0 mm 2 mps 757 mmHg 56%
    02:00 +25°C° 0 mm 3 mps 757 mmHg 57%
    03:00 +25°C° 0 mm 3 mps 757 mmHg 58%
    04:00 +25°C° 0 mm 2 mps 757 mmHg 58%
    05:00 +25°C° 0 mm 2 mps 757 mmHg 57%
    06:00 +25°C° 0 mm 2 mps 757 mmHg 57%
    07:00 +27°C° 0 mm 3 mps 757 mmHg 50%
    08:00 +30°C° 0 mm 3 mps 758 mmHg 44%
    09:00 +33°C° 0 mm 3 mps 758 mmHg 37%
    10:00 +34°C° 0 mm 3 mps 758 mmHg 34%
    11:00 +35°C° 0 mm 3 mps 758 mmHg 31%
    12:00 +36°C° 0 mm 3 mps 758 mmHg 28%
    13:00 +36°C° 0 mm 3 mps 758 mmHg 28%
    14:00 +36°C° 0 mm 3 mps 758 mmHg 28%
    15:00 +36°C° 0 mm 4 mps 758 mmHg 27%
    16:00 +34°C° 0 mm 4 mps 758 mmHg 33%
    17:00 +33°C° 0 mm 4 mps 758 mmHg 39%
    18:00 +30°C° 0 mm 5 mps 758 mmHg 45%
    19:00 +28°C° 0 mm 4 mps 758 mmHg 53%
    20:00 +27°C° 0 mm 4 mps 759 mmHg 62%
    21:00 +25°C° 0 mm 3 mps 759 mmHg 71%
    22:00 +24°C° 0 mm 3 mps 759 mmHg 74%
    23:00 +24°C° 0 mm 3 mps 759 mmHg 77%

    24 August, Friday

    Time Temperature Precipitation Wind Pressure Humidity
    00:00 +24°C° 0 mm 3 mps 759 mmHg 79%
    01:00 +24°C° 0 mm 3 mps 759 mmHg 79%
    02:00 +24°C° 0 mm 3 mps 759 mmHg 78%
    03:00 +24°C° 0 mm 3 mps 759 mmHg 77%
    04:00 +23°C° 0 mm 4 mps 759 mmHg 75%
    05:00 +23°C° 0 mm 4 mps 759 mmHg 72%
    06:00 +23°C° 0 mm 4 mps 759 mmHg 69%
    07:00 +26°C° 0 mm 5 mps 759 mmHg 61%
    08:00 +28°C° 0 mm 6 mps 759 mmHg 53%
    09:00 +30°C° 0 mm 6 mps 759 mmHg 45%
    10:00 +32°C° 0 mm 7 mps 759 mmHg 43%
    11:00 +32°C° 0 mm 7 mps 758 mmHg 40%
    12:00 +33°C° 0 mm 7 mps 758 mmHg 38%
    13:00 +33°C° 0 mm 8 mps 758 mmHg 39%
    14:00 +33°C° 0 mm 8 mps 757 mmHg 40%
    15:00 +32°C° 0 mm 8 mps 757 mmHg 41%
    16:00 +30°C° 0 mm 7 mps 757 mmHg 44%
    17:00 +29°C° 0 mm 7 mps 757 mmHg 47%
    18:00 +28°C° 0 mm 6 mps 757 mmHg 50%
    19:00 +26°C° 0 mm 6 mps 757 mmHg 54%
    20:00 +25°C° 0 mm 5 mps 758 mmHg 58%
    21:00 +23°C° 0 mm 4 mps 758 mmHg 62%
    22:00 +23°C° 0 mm 4 mps 758 mmHg 63%
    23:00 +23°C° 0 mm 4 mps 757 mmHg 64%

    25 August, Saturday

    Time Temperature Precipitation Wind Pressure Humidity
    00:00 +22°C° 0 mm 4 mps 757 mmHg 65%
    01:00 +22°C° 0 mm 4 mps 757 mmHg 66%
    02:00 +22°C° 0 mm 3 mps 757 mmHg 67%
    03:00 +22°C° 0 mm 3 mps 756 mmHg 68%
    04:00 +22°C° 0 mm 3 mps 756 mmHg 67%
    05:00 +22°C° 0 mm 3 mps 756 mmHg 66%
    06:00 +22°C° 0 mm 3 mps 756 mmHg 66%
    07:00 +25°C° 0 mm 4 mps 756 mmHg 57%
    08:00 +28°C° 0 mm 4 mps 756 mmHg 48%
    09:00 +30°C° 0 mm 5 mps 756 mmHg 39%
    10:00 +32°C° 0 mm 6 mps 756 mmHg 36%
    11:00 +33°C° 0 mm 6 mps 756 mmHg 34%
    12:00 +34°C° 0 mm 7 mps 756 mmHg 31%
    13:00 +34°C° 0 mm 7 mps 756 mmHg 32%
    14:00 +34°C° 0 mm 7 mps 756 mmHg 33%
    15:00 +33°C° 0 mm 8 mps 756 mmHg 34%
    16:00 +32°C° 0 mm 7 mps 756 mmHg 37%
    17:00 +30°C° 0 mm 7 mps 756 mmHg 41%
    18:00 +28°C° 0 mm 6 mps 756 mmHg 45%
    19:00 +27°C° 0 mm 6 mps 756 mmHg 49%
    20:00 +26°C° 0 mm 6 mps 756 mmHg 54%
    21:00 +25°C° 0 mm 5 mps 757 mmHg 58%
    22:00 +23°C° 0 mm 5 mps 757 mmHg 59%
    23:00 +23°C° 0 mm 5 mps 756 mmHg 59%

    26 August, Sunday

    Time Temperature Precipitation Wind Pressure Humidity
    00:00 +23°C° 0 mm 4 mps 756 mmHg 60%
    01:00 +23°C° 0 mm 4 mps 756 mmHg 61%
    02:00 +22°C° 0 mm 4 mps 756 mmHg 61%
    03:00 +22°C° 0 mm 4 mps 756 mmHg 62%
    04:00 +22°C° 0 mm 4 mps 756 mmHg 60%
    05:00 +23°C° 0 mm 4 mps 756 mmHg 58%
    06:00 +23°C° 0 mm 4 mps 756 mmHg 56%
    07:00 +26°C° 0 mm 5 mps 756 mmHg 46%
    08:00 +29°C° 0 mm 6 mps 756 mmHg 37%
    09:00 +32°C° 0 mm 7 mps 756 mmHg 27%
    10:00 +33°C° 0 mm 8 mps 756 mmHg 26%
    11:00 +34°C° 0 mm 8 mps 755 mmHg 26%
    12:00 +35°C° 0 mm 9 mps 755 mmHg 25%
    13:00 +35°C° 0 mm 9 mps 754 mmHg 26%
    14:00 +34°C° 0 mm 9 mps 754 mmHg 27%
    15:00 +34°C° 0 mm 10 mps 754 mmHg 29%
    16:00 +32°C° 0 mm 9 mps 754 mmHg 33%
    17:00 +31°C° 0 mm 8 mps 754 mmHg 37%
    18:00 +29°C° 0 mm 8 mps 754 mmHg 42%
    19:00 +28°C° 0 mm 7 mps 754 mmHg 46%
    20:00 +27°C° 0 mm 6 mps 754 mmHg 49%
    21:00 +24°C° 0 mm 6 mps 754 mmHg 53%
    22:00 +25°C° 0 mm 5 mps 754 mmHg 54%
    23:00 +25°C° 0 mm 5 mps 754 mmHg 54%
    Show more